Location: Dry Lake
(38.5688°N, 119.2804°W)
Time: 20:51:16
(UTC+00:00)

Daily predictions for brighter satellites

Satellite Brightness Start Highest point End
(mag) Time Altitude Azimuth Time Altitude Azimuth Time Altitude Azimuth
OAO 2 Rocket 4.3 12:32:53 40° ESE 12:32:53 40° ESE 12:36:15 10° E
CZ-4B R/B 4.5 12:29:23 10° SE 12:30:00 13° ESE 12:30:00 13° ESE
Cosmos 540 Rocket 3.7 12:46:31 40° S 12:48:17 67° ESE 12:53:23 10° NNE
Cosmos 1891 Rocket 4.3 12:48:03 10° S 12:54:15 88° W 13:00:23 10° N
USA 306 4.3 12:53:29 31° SSE 12:54:31 35° SE 12:58:24 10° ENE
SL-16 R/B 4.3 12:53:27 10° SSE 12:58:04 27° ESE 13:02:43 10° NE
Cosmos 1464 Rocket 3.8 12:52:21 10° S 12:58:28 89° W 13:04:39 10° N
deb Chang Zheng 4 4.1 12:54:36 10° NNE 12:58:47 55° E 13:02:55 10° S
Lacrosse 5 rocket 2.9 12:59:10 24° NNE 12:59:27 25° NE 13:02:34 10° E
Cosmos 2278 Rocket 2.4 12:59:00 26° N 13:02:12 67° ENE 13:07:50 10° SSE
Cosmos 990 Rocket 3.9 13:03:28 63° SW 13:03:28 63° SW 13:08:09 10° S
Haruka 4.0 13:02:10 37° SW 13:03:39 45° S 13:16:10 10° ESE
Cosmos 1072 Rocket 4.3 12:58:14 10° SSW 13:04:24 74° W 13:10:43 10° N
Gbstr 26 Del rocket 4.3 13:02:46 35° SW 13:06:16 89° NW 13:14:27 10° NE
ERS-2 3.4 13:03:14 10° SE 13:06:39 40° ENE 13:08:27 23° NNE
BREEZE M DEB (TANK) 4.1 13:08:50 18° E 13:08:50 18° E 13:09:31 10° ESE
CZ-4B R/B 3.2 13:04:33 10° NNE 13:08:08 56° E 13:11:50 10° S
Cosmos 2237 Rocket 2.0 13:04:57 23° SSW 13:08:37 82° WNW 13:14:20 10° NNE
Cosmos 2219 Rocket 3.9 13:13:21 17° NNW 13:13:21 17° NNW 13:15:03 10° N
Meteor PRIRODA 4.0 13:10:18 10° NNE 13:13:54 62° E 13:17:28 10° S
Cosmos 1400 Rocket 3.8 13:10:15 10° SSE 13:14:09 47° E 13:18:07 10° NNE
Cosmos 1689 Rocket 4.1 13:14:55 10° SE 13:17:27 27° ENE 13:19:05 17° NNE
SL-4 R/B 1.7 13:17:37 76° S 13:17:48 80° SE 13:21:46 10° NE
Atlas Centaur 2 3.6 13:14:34 26° SW 13:18:39 47° S 13:26:40 10° ESE
CZ-2C R/B 1.9 13:18:04 42° SSW 13:18:46 47° S 13:22:40 10° E
Cosmos 2333 Rocket 4.0 13:21:33 15° NNW 13:21:33 15° NNW 13:22:58 10° N
Meteor 1-21 Rocket 4.4 13:13:31 10° N 13:19:17 78° E 13:25:08 10° SSE
NOSS 3-2 (A) 3.9 13:15:54 10° SSW 13:21:13 54° ESE 13:27:11 10° NE
CZ-3 Stage 3 2.8 13:22:02 22° SSW 13:22:09 22° S 13:24:08 10° SE
BREEZE-M DEB (TANK) 1.9 13:22:10 74° WSW 13:22:25 86° NNW 13:28:29 10° NE
Lacrosse 4 Rocket 1.9 13:18:58 10° SSW 13:23:05 60° ESE 13:27:20 10° NE
ADEOS 3.8 13:19:34 10° N 13:24:28 43° WNW 13:25:19 40° W
Cosmos 858 Rocket 4.4 13:22:25 27° NNW 13:25:19 71° WSW 13:30:29 10° S
ATLAS 5 CENTAUR R/B 1.5 13:29:14 54° NNW 13:29:47 78° NE 13:35:37 10° SE
Cosmos 841 Rocket 3.5 13:26:55 18° SW 13:30:33 52° WNW 13:35:36 10° N
Cosmos 1908 3.0 13:26:55 10° S 13:30:41 86° W 13:34:31 10° N
Cosmos 2034 Rocket 4.0 13:31:13 10° SSW 13:37:31 63° W 13:43:50 10° N
COSMOS 2428 4.3 13:40:48 17° NW 13:40:48 17° NW 13:43:23 10° N
COSMO-SKYMED 1 2.7 13:35:29 10° S 13:39:41 49° W 13:42:22 21° NNW
Cosmos 1898 Rocket 4.1 13:39:40 31° WNW 13:40:42 34° W 13:45:18 10° SSW
Meteor 2-13 Rocket 4.4 13:35:22 10° NNW 13:41:30 69° W 13:47:34 10° S
Cosmos 1980 4.1 13:38:39 19° WSW 13:42:12 40° WNW 13:47:31 10° N
Nadezhda 4 Rocket 3.9 13:37:05 10° NNW 13:43:10 68° W 13:49:13 10° S
SAR-Lupe-4 3.4 13:40:18 10° SSE 13:43:52 86° WSW 13:47:27 10° NNW
Cosmos 1953 2.8 13:41:11 10° SW 13:44:51 35° WNW 13:48:30 10° N
SL-8 R/B 3.7 13:43:49 29° WNW 13:46:17 76° SW 13:51:05 10° SE
Cosmos 44 Rocket 3.6 13:44:31 23° NW 13:47:33 53° WSW 13:52:33 10° S
Cosmos 1634 Rocket 4.2 13:45:19 10° S 13:51:27 75° E 13:57:37 10° N
Cosmos 1340 2.5 13:48:30 10° NNW 13:52:15 74° W 13:55:59 10° S
CENTAUR R/B 3.0 13:47:17 10° SSW 13:52:47 59° ESE 13:59:17 10° NE
Cosmos 1544 Rocket 4.3 13:50:42 10° SW 13:54:25 28° WNW 13:58:10 10° NNW
Cosmos 1570 Rocket 4.4 13:50:22 10° SW 13:55:13 39° WNW 14:00:07 10° N
Cosmos 2098 Rocket 4.4 13:50:13 10° N 13:55:54 50° ENE 14:00:23 10° SSE
ATLAS CENTAUR R/B 1.1 13:54:30 10° SW 13:58:08 53° WNW 14:01:44 10° NNE
SAR-Lupe-1 4.2 13:56:37 10° S 14:00:06 51° W 14:03:37 10° NNW
Cosmos 2298 Rocket 4.4 13:54:52 10° NNW 14:00:12 67° ENE 14:05:29 10° SSE
SMAP 3.9 13:58:07 10° NNE 14:02:42 55° E 14:07:15 10° S
FALCON 9 DEB 4.5 14:00:02 10° SSW 14:02:56 36° SE 14:05:49 10° ENE
SJ-7 4.4 13:59:33 10° N 14:03:37 56° WNW 14:07:36 10° SSW
CZ-4B R/B 3.5 14:02:12 10° SW 14:03:06 13° WSW 14:03:06 13° WSW
Cosmos 1315 Rocket 3.3 14:01:32 10° S 14:05:22 60° E 14:09:15 10° NNE
Cosmos 372 Rocket 4.1 14:01:17 10° NNW 14:06:25 56° WSW 14:11:31 10° S
Cosmos 2228 3.3 14:02:38 10° S 14:06:51 68° E 14:11:04 10° NNE
CZ-4B DEB 4.3 14:01:32 10° NNE 14:07:08 89° ESE 14:12:41 10° SSW
Cosmos 1606 Rocket 4.1 14:03:12 10° S 14:07:26 61° E 14:11:42 10° NNE
MOS 1 Rocket 4.0 14:07:37 10° SSW 14:12:11 35° W 14:16:33 10° NNW
H-2A R/B 2.9 14:09:05 10° NNE 14:13:36 77° ESE 14:18:05 10° S
USA 307 3.1 14:10:10 10° WSW 14:14:12 48° NW 14:18:18 10° NE
DMSP B5D1-3 4.5 14:09:11 10° S 14:14:15 66° WSW 14:19:20 10° NNW
USA 238 DEB 3.6 14:07:52 10° SW 14:14:21 75° WNW 14:21:12 10° NNE
USA 238 3.6 14:07:58 10° SW 14:14:28 76° NW 14:21:18 10° NNE
Cosmos 1125 Rocket 4.1 14:10:07 10° NNW 14:15:23 61° ENE 14:20:38 10° SSE
OAO 2 Rocket 4.1 14:11:50 13° W 14:15:52 41° SSW 14:20:29 10° SE
Cosmos 1626 Rocket 4.3 14:11:57 10° NNW 14:15:56 32° W 14:19:54 10° SSW
Cosmos 1703 3.9 14:13:15 10° NNW 14:16:45 32° W 14:20:16 10° SSW
YAOGAN 6 3.1 14:13:53 10° N 14:17:19 36° WNW 14:20:43 10° SW
Envisat 3.2 14:12:52 10° N 14:17:46 49° WNW 14:22:38 10° SW
Cosmos 2026 Rocket 4.0 14:13:24 10° N 14:19:46 77° W 14:26:07 10° S
H-2A R/B 3.8 14:17:21 10° NNW 14:20:15 22° WNW 14:23:10 10° WSW
USA 305 3.4 14:18:26 10° WSW 14:22:26 40° NW 14:26:27 10° NE
USA 308 3.3 14:19:03 10° WSW 14:23:03 41° NW 14:27:04 10° NE
Cosmos 1346 Rocket 2.7 14:24:47 10° NNW 14:28:45 71° W 14:32:42 10° S
NOAA 12 4.1 14:26:59 10° N 14:32:17 77° WNW 14:37:34 10° SSW
NOAA 6 4.2 14:27:57 10° N 14:32:58 51° WNW 14:37:58 10° SW
USA 306 3.7 14:30:37 10° W 14:34:29 33° NW 14:38:22 10° NNE
MOS 1-B 4.4 14:28:48 10° N 14:34:30 64° WNW 14:40:11 10° SSW
Cosmos 1455 4.4 14:33:29 10° SSE 14:36:44 29° E 14:40:02 10° NNE
Lacrosse 5 rocket 1.9 14:35:09 10° WNW 14:38:37 34° SW 14:41:57 10° SSE
Cosmos 2369 Rocket 3.5 14:33:49 10° N 14:39:03 39° ENE 14:44:13 10° SE
Cosmos 1758 Rocket 3.9 14:35:18 10° NNW 14:39:36 46° W 14:43:51 10° SSW
ERS-2 4.1 14:39:16 10° WSW 14:40:22 11° W 14:41:27 10° WNW
Cosmos 2292 Rocket 3.4 14:37:58 10° N 14:40:55 60° E 14:44:18 10° SSE
CZ-2C R/B 2.6 14:35:55 10° S 14:41:05 68° WSW 14:46:24 10° NNW
SL-16 R/B 2.6 14:36:40 10° SW 14:41:56 40° WNW 14:47:15 10° N
GEOS 3 Rocket 4.3 14:37:38 10° S 14:42:38 41° WSW 14:47:42 10° NW
Cosmos 1300 3.3 14:39:11 10° SW 14:42:38 33° WNW 14:46:07 10° NNW
Cosmos 1943 Rocket 2.5 14:37:03 10° NNW 14:42:44 73° ENE 14:48:22 10° SSE
ERBS 3.2 14:39:57 10° SSW 14:43:09 52° SE 14:46:21 10° NE
Cosmos 2058 Rocket 3.3 14:41:00 10° S 14:45:21 77° E 14:49:47 10° N
Cosmos 2278 Rocket 3.8 14:42:30 10° WNW 14:45:36 15° W 14:48:43 10° SW
CZ-4B R/B 3.3 14:41:46 10° N 14:47:25 72° WNW 14:52:56 10° SSW
